| time (UTC) | temp C | wind direction | speed KPH | gust KPH | rain 1hr cm | rain 24hr cm | rain mn cm | humidity % | barometer mb |
| 20260507114006 | -3 | 321 | 1.6 | 4.8 | 0.00 | 0.00 | 0.00 | 83 | 1011.4 |
| 20260507113506 | -3 | 319 | 0.0 | 4.8 | 0.00 | 0.00 | 0.00 | 83 | 1011.3 |
| 20260507113021 | -4 | 317 | 1.6 | 4.8 | 0.00 | 0.00 | 0.00 | 82 | 1011.5 |
| 20260507113001 | -4 | 317 | 1.6 | 4.8 | 0.00 | 0.00 | 0.00 | 82 | 1011.4 |
| 20260507112507 | -3 | 328 | 1.6 | 4.8 | 0.00 | 0.00 | 0.00 | 83 | 1011.4 |
| 20260507112007 | -3 | 310 | 1.6 | 4.8 | 0.00 | 0.00 | 0.00 | 81 | 1011.5 |
| 20260507111558 | -3 | 309 | 3.2 | 4.8 | 0.00 | 0.00 | 0.00 | 82 | 1011.5 |
| 20260507111525 | -3 | 308 | 3.2 | 4.8 | 0.00 | 0.00 | 0.00 | 81 | 1011.6 |
| 20260507111009 | -3 | 319 | 3.2 | 4.8 | 0.00 | 0.00 | 0.00 | 81 | 1011.7 |
| 20260507110510 | -3 | 325 | 1.6 | 3.2 | 0.00 | 0.00 | 0.00 | 81 | 1011.6 |
| 20260507110100 | -2 | 342 | 0.0 | 1.6 | 0.00 | 0.00 | 0.00 | 81 | 1011.4 |
| 20260507110011 | -2 | 342 | 1.6 | 1.6 | 0.00 | 0.00 | 0.00 | 81 | 1011.5 |
| 20260507105503 | -2 | 311 | 0.0 | 3.2 | 0.00 | 0.00 | 0.00 | 81 | 1011.5 |
| 20260507105004 | -3 | 311 | 0.0 | 3.2 | 0.00 | 0.00 | 0.00 | 80 | 1011.4 |
| 20260507104600 | -2 | 307 | 1.6 | 3.2 | 0.00 | 0.00 | 0.00 | 79 | 1011.3 |
| 20260507104524 | -2 | 307 | 3.2 | 3.2 | 0.00 | 0.00 | 0.00 | 78 | 1011.5 |
| 20260507104007 | -2 | 289 | 1.6 | 3.2 | 0.00 | 0.00 | 0.00 | 78 | 1011.5 |
| 20260507103503 | -2 | 136 | 0.0 | 1.6 | 0.00 | 0.00 | 0.00 | 78 | 1011.5 |
| 20260507103117 | -1 | 136 | 0.0 | 1.6 | 0.00 | 0.00 | 0.00 | 78 | 1011.4 |
| 20260507103023 | -1 | 136 | 0.0 | 1.6 | 0.00 | 0.00 | 0.00 | 77 | 1011.5 |
| 20260507102506 | -1 | 136 | 1.6 | 1.6 | 0.00 | 0.00 | 0.00 | 74 | 1011.6 |
| 20260507102007 | 0 | 136 | 1.6 | 1.6 | 0.00 | 0.00 | 0.00 | 72 | 1011.6 |
| 20260507101548 | 0 | 136 | 0.0 | 0.0 | 0.00 | 0.00 | 0.00 | 75 | 1011.4 |
| 20260507101535 | 0 | 136 | 0.0 | 0.0 | 0.00 | 0.00 | 0.00 | 75 | 1011.5 |
| 20260507101006 | 0 | 136 | 0.0 | 0.0 | 0.00 | 0.00 | 0.00 | 76 | 1011.5 |
| 20260507100508 | -1 | 136 | 0.0 | 0.0 | 0.00 | 0.00 | 0.00 | 77 | 1011.5 |
| 20260507100059 | -1 | 136 | 0.0 | 0.0 | 0.00 | 0.00 | 0.00 | 76 | 1011.4 |
| 20260507100031 | -1 | 136 | 0.0 | 0.0 | 0.00 | 0.00 | 0.00 | 75 | 1011.6 |
| 20260507095510 | 0 | 136 | 0.0 | 0.0 | 0.00 | 0.00 | 0.00 | 74 | 1011.6 |
| 20260507095014 | 0 | 136 | 0.0 | 0.0 | 0.00 | 0.00 | 0.00 | 72 | 1011.6 |
| 20260507094542 | 0 | 136 | 0.0 | 0.0 | 0.00 | 0.00 | 0.00 | 72 | 1011.4 |
| 20260507094525 | 0 | 136 | 0.0 | 0.0 | 0.00 | 0.00 | 0.00 | 71 | 1011.6 |
| 20260507094005 | 0 | 136 | 0.0 | 0.0 | 0.00 | 0.00 | 0.00 | 70 | 1011.7 |
| 20260507093504 | 0 | 136 | 0.0 | 1.6 | 0.00 | 0.00 | 0.00 | 70 | 1011.7 |
| 20260507093038 | 0 | 136 | 0.0 | 1.6 | 0.00 | 0.00 | 0.00 | 70 | 1011.5 |
| 20260507093010 | 0 | 136 | 0.0 | 1.6 | 0.00 | 0.00 | 0.00 | 70 | 1011.7 |
| 20260507092509 | 0 | 136 | 0.0 | 1.6 | 0.00 | 0.00 | 0.00 | 70 | 1011.7 |
| 20260507092005 | 1 | 136 | 0.0 | 0.0 | 0.00 | 0.00 | 0.00 | 69 | 1011.8 |
| 20260507091544 | 1 | 136 | 0.0 | 0.0 | 0.00 | 0.00 | 0.00 | 69 | 1011.8 |
| 20260507091539 | 1 | 136 | 0.0 | 0.0 | 0.00 | 0.00 | 0.00 | 69 | 1011.5 |
| 20260507091007 | 1 | 136 | 0.0 | 0.0 | 0.00 | 0.00 | 0.00 | 68 | 1011.7 |
| 20260507090507 | 1 | 136 | 0.0 | 0.0 | 0.00 | 0.00 | 0.00 | 68 | 1011.8 |
| 20260507090035 | 1 | 136 | 0.0 | 1.6 | 0.00 | 0.00 | 0.00 | 68 | 1011.7 |
| 20260507090022 | 1 | 136 | 0.0 | 1.6 | 0.00 | 0.00 | 0.00 | 68 | 1011.8 |
| 20260507085506 | 1 | 136 | 0.0 | 1.6 | 0.00 | 0.00 | 0.00 | 68 | 1011.8 |
| 20260507085006 | 1 | 146 | 0.0 | 0.0 | 0.00 | 0.00 | 0.00 | 68 | 1011.7 |
| 20260507084542 | 1 | 146 | 0.0 | 3.2 | 0.00 | 0.00 | 0.00 | 68 | 1011.7 |
| 20260507084527 | 1 | 146 | 0.0 | 3.2 | 0.00 | 0.00 | 0.00 | 68 | 1011.7 |
| 20260507084014 | 1 | 148 | 0.0 | 4.8 | 0.00 | 0.00 | 0.00 | 67 | 1011.8 |
| 20260507083510 | 1 | 160 | 1.6 | 4.8 | 0.00 | 0.00 | 0.00 | 67 | 1011.8 |
| 20260507083032 | 1 | 142 | 1.6 | 3.2 | 0.00 | 0.00 | 0.00 | 68 | 1011.7 |
| 20260507083026 | 1 | 146 | 1.6 | 6.4 | 0.00 | 0.00 | 0.00 | 67 | 1011.8 |
| 20260507082502 | 1 | 125 | 0.0 | 8.0 | 0.00 | 0.00 | 0.00 | 68 | 1011.8 |
| 20260507082005 | 1 | 150 | 4.8 | 9.7 | 0.00 | 0.00 | 0.00 | 68 | 1011.8 |
| 20260507081530 | 1 | 127 | 4.8 | 9.7 | 0.00 | 0.00 | 0.00 | 68 | 1011.5 |
| 20260507081514 | 1 | 148 | 6.4 | 9.7 | 0.00 | 0.00 | 0.00 | 67 | 1011.7 |
| 20260507081006 | 1 | 160 | 6.4 | 9.7 | 0.00 | 0.00 | 0.00 | 68 | 1011.7 |
| 20260507080510 | 1 | 135 | 6.4 | 9.7 | 0.00 | 0.00 | 0.00 | 67 | 1011.7 |
| 20260507080027 | 1 | 148 | 6.4 | 9.7 | 0.00 | 0.00 | 0.00 | 67 | 1011.6 |
| 20260507080017 | 1 | 162 | 6.4 | 9.7 | 0.00 | 0.00 | 0.00 | 67 | 1011.7 |
| 20260507075506 | 2 | 169 | 3.2 | 8.0 | 0.00 | 0.00 | 0.00 | 66 | 1011.8 |
| 20260507075009 | 2 | 155 | 3.2 | 8.0 | 0.00 | 0.00 | 0.00 | 65 | 1011.9 |
| 20260507074523 | 2 | 203 | 1.6 | 9.7 | 0.00 | 0.00 | 0.00 | 65 | 1011.8 |
| 20260507074521 | 2 | 195 | 3.2 | 9.7 | 0.00 | 0.00 | 0.00 | 64 | 1011.8 |
| 20260507074006 | 2 | 178 | 6.4 | 11.3 | 0.00 | 0.00 | 0.00 | 63 | 1011.8 |
| 20260507073507 | 3 | 174 | 4.8 | 11.3 | 0.00 | 0.00 | 0.00 | 63 | 1011.8 |
| 20260507073026 | 3 | 155 | 8.0 | 12.9 | 0.00 | 0.00 | 0.00 | 63 | 1011.8 |
| 20260507073022 | 3 | 162 | 8.0 | 12.9 | 0.00 | 0.00 | 0.00 | 63 | 1011.8 |
| 20260507072513 | 3 | 176 | 6.4 | 12.9 | 0.00 | 0.00 | 0.00 | 62 | 1011.8 |
| 20260507072011 | 3 | 117 | 6.4 | 12.9 | 0.00 | 0.00 | 0.00 | 62 | 1011.9 |
| 20260507071525 | 3 | 142 | 9.7 | 14.5 | 0.00 | 0.00 | 0.00 | 61 | 1011.9 |
| 20260507071002 | 3 | 168 | 9.7 | 14.5 | 0.00 | 0.00 | 0.00 | 61 | 1011.9 |
| 20260507070509 | 3 | 160 | 8.0 | 14.5 | 0.00 | 0.00 | 0.00 | 61 | 1011.9 |
| 20260507070020 | 3 | 169 | 4.8 | 14.5 | 0.00 | 0.00 | 0.00 | 62 | 1012.0 |
| 20260507070016 | 3 | 162 | 6.4 | 14.5 | 0.00 | 0.00 | 0.00 | 61 | 1012.0 |
| 20260507065505 | 3 | 170 | 11.3 | 14.5 | 0.00 | 0.00 | 0.00 | 62 | 1012.0 |
| 20260507065009 | 3 | 165 | 9.7 | 16.1 | 0.00 | 0.00 | 0.00 | 62 | 1012.1 |
| 20260507064520 | 3 | 179 | 9.7 | 17.7 | 0.00 | 0.00 | 0.00 | 62 | 1012.1 |
| 20260507064518 | 3 | 163 | 8.0 | 17.7 | 0.00 | 0.00 | 0.00 | 62 | 1012.0 |
| 20260507064005 | 3 | 134 | 11.3 | 19.3 | 0.00 | 0.00 | 0.00 | 62 | 1012.1 |
| 20260507063507 | 3 | 143 | 12.9 | 19.3 | 0.00 | 0.00 | 0.00 | 62 | 1012.1 |
| 20260507063026 | 3 | 150 | 11.3 | 17.7 | 0.00 | 0.00 | 0.00 | 63 | 1012.3 |
| 20260507063016 | 3 | 169 | 11.3 | 17.7 | 0.00 | 0.00 | 0.00 | 63 | 1012.2 |
| 20260507062510 | 3 | 146 | 9.7 | 19.3 | 0.00 | 0.00 | 0.00 | 63 | 1012.3 |
| 20260507062006 | 3 | 141 | 11.3 | 19.3 | 0.00 | 0.00 | 0.00 | 64 | 1012.3 |
| 20260507061531 | 3 | 175 | 12.9 | 20.9 | 0.00 | 0.00 | 0.00 | 64 | 1012.4 |
| 20260507061514 | 3 | 148 | 12.9 | 19.3 | 0.00 | 0.00 | 0.00 | 64 | 1012.3 |
| 20260507061009 | 3 | 139 | 9.7 | 20.9 | 0.00 | 0.00 | 0.00 | 65 | 1012.4 |
| 20260507060509 | 3 | 151 | 9.7 | 19.3 | 0.00 | 0.00 | 0.00 | 63 | 1012.5 |
| 20260507060031 | 3 | 139 | 12.9 | 20.9 | 0.00 | 0.00 | 0.00 | 62 | 1012.5 |
| 20260507060017 | 3 | 159 | 12.9 | 20.9 | 0.00 | 0.00 | 0.00 | 63 | 1012.4 |
| 20260507055508 | 3 | 135 | 12.9 | 20.9 | 0.00 | 0.00 | 0.00 | 62 | 1012.6 |
| 20260507055007 | 3 | 146 | 12.9 | 16.1 | 0.00 | 0.00 | 0.00 | 61 | 1012.7 |
| 20260507054520 | 3 | 165 | 6.4 | 14.5 | 0.00 | 0.00 | 0.00 | 62 | 1012.7 |
| 20260507054507 | 3 | 134 | 6.4 | 14.5 | 0.00 | 0.00 | 0.00 | 62 | 1012.6 |
| 20260507054007 | 3 | 148 | 9.7 | 16.1 | 0.00 | 0.00 | 0.00 | 62 | 1012.7 |
| 20260507053506 | 3 | 131 | 4.8 | 16.1 | 0.00 | 0.00 | 0.00 | 63 | 1012.8 |
| 20260507053019 | 3 | 117 | 8.0 | 14.5 | 0.00 | 0.00 | 0.00 | 64 | 1012.9 |
| 20260507053004 | 3 | 112 | 6.4 | 14.5 | 0.00 | 0.00 | 0.00 | 64 | 1012.7 |
| 20260507052507 | 3 | 147 | 9.7 | 14.5 | 0.00 | 0.00 | 0.00 | 64 | 1012.8 |
| 20260507052007 | 3 | 130 | 8.0 | 14.5 | 0.00 | 0.00 | 0.00 | 65 | 1012.9 |
| 20260507051602 | 3 | 127 | 8.0 | 14.5 | 0.00 | 0.00 | 0.00 | 66 | 1012.8 |
| 20260507051526 | 3 | 84 | 9.7 | 14.5 | 0.00 | 0.00 | 0.00 | 65 | 1012.9 |
| 20260507051010 | 3 | 116 | 4.8 | 11.3 | 0.00 | 0.00 | 0.00 | 65 | 1013.0 |
| 20260507050511 | 2 | 74 | 6.4 | 9.7 | 0.00 | 0.00 | 0.00 | 64 | 1013.0 |
| 20260507050059 | 2 | 75 | 4.8 | 9.7 | 0.00 | 0.00 | 0.00 | 64 | 1013.0 |
| 20260507050032 | 2 | 162 | 6.4 | 11.3 | 0.00 | 0.00 | 0.00 | 64 | 1013.1 |
| 20260507045510 | 2 | 111 | 4.8 | 11.3 | 0.00 | 0.00 | 0.00 | 63 | 1013.1 |
| 20260507045008 | 3 | 99 | 6.4 | 12.9 | 0.00 | 0.00 | 0.00 | 63 | 1013.3 |
| 20260507044558 | 3 | 129 | 3.2 | 14.5 | 0.00 | 0.00 | 0.00 | 62 | 1013.2 |
| 20260507044541 | 3 | 115 | 4.8 | 14.5 | 0.00 | 0.00 | 0.00 | 62 | 1013.3 |
| 20260507044017 | 3 | 109 | 8.0 | 17.7 | 0.00 | 0.00 | 0.00 | 61 | 1013.4 |
| 20260507043507 | 3 | 94 | 8.0 | 17.7 | 0.00 | 0.00 | 0.00 | 60 | 1013.5 |
| 20260507043054 | 3 | 84 | 6.4 | 14.5 | 0.00 | 0.00 | 0.00 | 60 | 1013.4 |
| 20260507043018 | 3 | 102 | 8.0 | 11.3 | 0.00 | 0.00 | 0.00 | 59 | 1013.5 |
| 20260507042511 | 3 | 120 | 6.4 | 16.1 | 0.00 | 0.00 | 0.00 | 58 | 1013.6 |
| 20260507042007 | 3 | 125 | 4.8 | 16.1 | 0.00 | 0.00 | 0.00 | 58 | 1013.6 |
| 20260507041601 | 3 | 76 | 3.2 | 9.7 | 0.00 | 0.00 | 0.00 | 58 | 1013.5 |
| 20260507041523 | 3 | 79 | 4.8 | 9.7 | 0.00 | 0.00 | 0.00 | 58 | 1013.6 |
| 20260507041008 | 3 | 108 | 6.4 | 9.7 | 0.00 | 0.00 | 0.00 | 57 | 1013.7 |
| 20260507040511 | 3 | 102 | 4.8 | 8.0 | 0.00 | 0.00 | 0.00 | 57 | 1013.8 |
| 20260507040052 | 3 | 97 | 3.2 | 9.7 | 0.00 | 0.00 | 0.00 | 58 | 1013.7 |
| 20260507040025 | 3 | 86 | 3.2 | 11.3 | 0.00 | 0.00 | 0.00 | 57 | 1013.9 |
| 20260507035507 | 3 | 54 | 4.8 | 11.3 | 0.00 | 0.00 | 0.00 | 56 | 1013.8 |
| 20260507035011 | 3 | 75 | 4.8 | 11.3 | 0.00 | 0.00 | 0.00 | 56 | 1013.8 |
| 20260507034550 | 3 | 75 | 4.8 | 9.7 | 0.00 | 0.00 | 0.00 | 56 | 1013.7 |
| 20260507034527 | 3 | 65 | 4.8 | 9.7 | 0.00 | 0.00 | 0.00 | 56 | 1013.8 |
| 20260507034004 | 3 | 106 | 4.8 | 14.5 | 0.00 | 0.00 | 0.00 | 55 | 1013.8 |
| 20260507033503 | 3 | 101 | 4.8 | 14.5 | 0.00 | 0.00 | 0.00 | 55 | 1013.9 |
| 20260507033051 | 3 | 62 | 4.8 | 11.3 | 0.00 | 0.00 | 0.00 | 55 | 1013.7 |
| 20260507033015 | 3 | 109 | 4.8 | 11.3 | 0.00 | 0.00 | 0.00 | 55 | 1013.8 |
| 20260507032507 | 3 | 79 | 4.8 | 9.7 | 0.00 | 0.00 | 0.00 | 54 | 1013.9 |
| 20260507032006 | 3 | 86 | 4.8 | 9.7 | 0.00 | 0.00 | 0.00 | 54 | 1014.0 |
| 20260507031549 | 4 | 72 | 4.8 | 9.7 | 0.00 | 0.00 | 0.00 | 54 | 1013.8 |
| 20260507031520 | 4 | 72 | 4.8 | 11.3 | 0.00 | 0.00 | 0.00 | 54 | 1013.9 |
| 20260507031011 | 4 | 65 | 6.4 | 14.5 | 0.00 | 0.00 | 0.00 | 53 | 1014.1 |
| 20260507030508 | 4 | 89 | 8.0 | 14.5 | 0.00 | 0.00 | 0.00 | 52 | 1014.1 |
| 20260507030048 | 5 | 60 | 6.4 | 12.9 | 0.00 | 0.00 | 0.00 | 52 | 1013.8 |
| 20260507030022 | 5 | 74 | 6.4 | 12.9 | 0.00 | 0.00 | 0.00 | 51 | 1014.0 |
| 20260507025507 | 5 | 47 | 6.4 | 12.9 | 0.00 | 0.00 | 0.00 | 51 | 1013.9 |
| 20260507025007 | 5 | 60 | 6.4 | 12.9 | 0.00 | 0.00 | 0.00 | 50 | 1013.9 |
| 20260507024552 | 6 | 60 | 8.0 | 12.9 | 0.00 | 0.00 | 0.00 | 49 | 1013.7 |
| 20260507024529 | 6 | 63 | 8.0 | 11.3 | 0.00 | 0.00 | 0.00 | 49 | 1013.9 |
| 20260507024008 | 6 | 49 | 8.0 | 12.9 | 0.00 | 0.00 | 0.00 | 48 | 1013.9 |
| 20260507023511 | 6 | 64 | 6.4 | 14.5 | 0.00 | 0.00 | 0.00 | 47 | 1013.9 |
| 20260507023048 | 6 | 53 | 8.0 | 16.1 | 0.00 | 0.00 | 0.00 | 47 | 1013.8 |
| 20260507023011 | 6 | 46 | 8.0 | 16.1 | 0.00 | 0.00 | 0.00 | 47 | 1013.9 |
| 20260507022503 | 6 | 41 | 8.0 | 16.1 | 0.00 | 0.00 | 0.00 | 47 | 1013.9 |
| 20260507022006 | 6 | 76 | 9.7 | 14.5 | 0.00 | 0.00 | 0.00 | 47 | 1013.9 |
| 20260507021600 | 6 | 52 | 8.0 | 12.9 | 0.00 | 0.00 | 0.00 | 47 | 1013.7 |
| 20260507021518 | 6 | 53 | 8.0 | 12.9 | 0.00 | 0.00 | 0.00 | 47 | 1014.1 |
| 20260507021010 | 6 | 56 | 8.0 | 12.9 | 0.00 | 0.00 | 0.00 | 47 | 1014.1 |
| 20260507020506 | 6 | 61 | 8.0 | 11.3 | 0.00 | 0.00 | 0.00 | 47 | 1014.1 |
| 20260507020106 | 7 | 70 | 4.8 | 11.3 | 0.00 | 0.00 | 0.00 | 47 | 1013.8 |
| 20260507020023 | 7 | 91 | 6.4 | 11.3 | 0.00 | 0.00 | 0.00 | 47 | 1014.2 |
| 20260507015506 | 7 | 56 | 6.4 | 9.7 | 0.00 | 0.00 | 0.00 | 46 | 1014.0 |
| 20260507015010 | 7 | 53 | 3.2 | 6.4 | 0.00 | 0.00 | 0.00 | 45 | 1013.9 |
| 20260507014611 | 7 | 56 | 3.2 | 6.4 | 0.00 | 0.00 | 0.00 | 43 | 1013.6 |
| 20260507014527 | 7 | 75 | 3.2 | 6.4 | 0.00 | 0.00 | 0.00 | 42 | 1014.0 |
| 20260507014009 | 7 | 63 | 4.8 | 8.0 | 0.00 | 0.00 | 0.00 | 41 | 1014.0 |
| 20260507013507 | 7 | 55 | 4.8 | 9.7 | 0.00 | 0.00 | 0.00 | 41 | 1014.1 |
| 20260507013049 | 7 | 51 | 4.8 | 9.7 | 0.00 | 0.00 | 0.00 | 41 | 1013.6 |
| 20260507013026 | 7 | 51 | 4.8 | 9.7 | 0.00 | 0.00 | 0.00 | 41 | 1014.0 |
| 20260507012514 | 7 | 56 | 6.4 | 9.7 | 0.00 | 0.00 | 0.00 | 40 | 1014.0 |
| 20260507012010 | 7 | 54 | 6.4 | 9.7 | 0.00 | 0.00 | 0.00 | 40 | 1014.0 |
| 20260507011555 | 7 | 90 | 4.8 | 8.0 | 0.00 | 0.00 | 0.00 | 41 | 1013.6 |
| 20260507011513 | 7 | 53 | 4.8 | 8.0 | 0.00 | 0.00 | 0.00 | 40 | 1014.1 |
| 20260507011005 | 8 | 46 | 4.8 | 9.7 | 0.00 | 0.00 | 0.00 | 40 | 1014.1 |
| 20260507010506 | 8 | 58 | 4.8 | 9.7 | 0.00 | 0.00 | 0.00 | 40 | 1014.1 |
| 20260507010046 | 8 | 31 | 4.8 | 8.0 | 0.00 | 0.00 | 0.00 | 39 | 1013.7 |
| 20260507010016 | 8 | 60 | 4.8 | 9.7 | 0.00 | 0.00 | 0.00 | 39 | 1014.1 |
| 20260507005508 | 8 | 34 | 4.8 | 9.7 | 0.00 | 0.00 | 0.00 | 39 | 1014.1 |
| 20260507005009 | 8 | 31 | 4.8 | 9.7 | 0.00 | 0.00 | 0.00 | 38 | 1014.2 |
| 20260507004541 | 8 | 27 | 3.2 | 9.7 | 0.00 | 0.00 | 0.00 | 38 | 1013.9 |
| 20260507004522 | 8 | 352 | 4.8 | 9.7 | 0.00 | 0.00 | 0.00 | 38 | 1014.2 |
| 20260507004007 | 8 | 20 | 6.4 | 9.7 | 0.00 | 0.00 | 0.00 | 38 | 1014.2 |
| 20260507003508 | 8 | 45 | 3.2 | 8.0 | 0.00 | 0.00 | 0.00 | 38 | 1014.2 |
| 20260507003040 | 8 | 6 | 4.8 | 8.0 | 0.00 | 0.00 | 0.00 | 37 | 1013.9 |
| 20260507003026 | 8 | 25 | 4.8 | 12.9 | 0.00 | 0.00 | 0.00 | 37 | 1014.2 |
| 20260507002510 | 8 | 61 | 6.4 | 14.5 | 0.00 | 0.00 | 0.00 | 37 | 1014.3 |
| 20260507002012 | 9 | 13 | 6.4 | 17.7 | 0.00 | 0.00 | 0.00 | 37 | 1014.3 |
| 20260507001555 | 9 | 40 | 9.7 | 17.7 | 0.00 | 0.00 | 0.00 | 37 | 1014.0 |
| 20260507001525 | 9 | 15 | 9.7 | 17.7 | 0.00 | 0.00 | 0.00 | 37 | 1014.4 |
| 20260507001012 | 10 | 32 | 4.8 | 11.3 | 0.00 | 0.00 | 0.00 | 36 | 1014.4 |
| 20260507000513 | 10 | 314 | 6.4 | 11.3 | 0.00 | 0.00 | 0.00 | 36 | 1014.4 |
| 20260507000043 | 10 | 16 | 3.2 | 9.7 | 0.00 | 0.00 | 0.00 | 36 | 1014.1 |
| 20260507000014 | 10 | 9 | 4.8 | 11.3 | 0.00 | 0.00 | 0.00 | 35 | 1014.4 |
| 20260506235507 | 9 | 309 | 6.4 | 14.5 | 0.00 | 0.00 | 0.00 | 36 | 1014.5 |
| 20260506235008 | 10 | 299 | 9.7 | 14.5 | 0.00 | 0.00 | 0.00 | 35 | 1014.5 |
| 20260506234540 | 10 | 341 | 4.8 | 12.9 | 0.00 | 0.00 | 0.00 | 36 | 1014.1 |
| 20260506234515 | 10 | 330 | 4.8 | 24.1 | 0.00 | 0.00 | 0.00 | 35 | 1014.5 |
| 20260506234006 | 10 | 340 | 4.8 | 24.1 | 0.00 | 0.00 | 0.00 | 36 | 1014.5 |
| 20260506233507 | 10 | 308 | 12.9 | 24.1 | 0.00 | 0.00 | 0.00 | 35 | 1014.5 |
| 20260506233034 | 10 | 311 | 3.2 | 17.7 | 0.00 | 0.00 | 0.00 | 36 | 1014.2 |
| 20260506233025 | 10 | 302 | 6.4 | 17.7 | 0.00 | 0.00 | 0.00 | 34 | 1014.6 |
| 20260506232509 | 10 | 255 | 6.4 | 11.3 | 0.00 | 0.00 | 0.00 | 36 | 1014.6 |
| 20260506232007 | 10 | 23 | 4.8 | 11.3 | 0.00 | 0.00 | 0.00 | 36 | 1014.7 |
| 20260506231534 | 10 | 38 | 1.6 | 11.3 | 0.00 | 0.00 | 0.00 | 36 | 1014.4 |
| 20260506231524 | 10 | 37 | 1.6 | 11.3 | 0.00 | 0.00 | 0.00 | 35 | 1014.7 |
| 20260506231008 | 10 | 305 | 6.4 | 11.3 | 0.00 | 0.00 | 0.00 | 36 | 1014.8 |
| 20260506230510 | 10 | 296 | 4.8 | 16.1 | 0.00 | 0.00 | 0.00 | 34 | 1014.9 |
| 20260506230030 | 10 | 278 | 6.4 | 16.1 | 0.00 | 0.00 | 0.00 | 36 | 1014.6 |
| 20260506230028 | 10 | 301 | 8.0 | 16.1 | 0.00 | 0.00 | 0.00 | 35 | 1014.9 |
| 20260506225508 | 10 | 306 | 6.4 | 12.9 | 0.00 | 0.00 | 0.00 | 36 | 1014.9 |
| 20260506225011 | 10 | 302 | 6.4 | 14.5 | 0.00 | 0.00 | 0.00 | 36 | 1014.9 |
| 20260506224525 | 10 | 331 | 1.6 | 16.1 | 0.00 | 0.00 | 0.00 | 35 | 1014.6 |
| 20260506224517 | 10 | 249 | 4.8 | 16.1 | 0.00 | 0.00 | 0.00 | 35 | 1014.9 |
| 20260506224006 | 10 | 313 | 9.7 | 19.3 | 0.00 | 0.00 | 0.00 | 36 | 1015.1 |
| 20260506223505 | 10 | 17 | 9.7 | 22.5 | 0.00 | 0.00 | 0.00 | 36 | 1015.1 |
| 20260506223022 | 10 | 292 | 11.3 | 22.5 | 0.00 | 0.00 | 0.00 | 38 | 1014.7 |
| 20260506223018 | 10 | 307 | 12.9 | 22.5 | 0.00 | 0.00 | 0.00 | 37 | 1015.1 |
| 20260506222507 | 9 | 293 | 8.0 | 20.9 | 0.00 | 0.00 | 0.00 | 37 | 1015.1 |
| 20260506222012 | 9 | 6 | 11.3 | 20.9 | 0.00 | 0.00 | 0.00 | 36 | 1015.0 |
| 20260506221526 | 9 | 264 | 4.8 | 19.3 | 0.00 | 0.00 | 0.00 | 38 | 1015.1 |
| 20260506221519 | 9 | 264 | 4.8 | 12.9 | 0.00 | 0.00 | 0.00 | 40 | 1014.9 |
| 20260506221011 | 9 | 304 | 8.0 | 19.3 | 0.00 | 0.00 | 0.00 | 37 | 1015.2 |
| 20260506220508 | 9 | 31 | 8.0 | 17.7 | 0.00 | 0.00 | 0.00 | 38 | 1015.2 |
| 20260506220033 | 9 | 341 | 4.8 | 16.1 | 0.00 | 0.00 | 0.00 | 37 | 1015.2 |
| 20260506220017 | 9 | 10 | 4.8 | 16.1 | 0.00 | 0.00 | 0.00 | 38 | 1015.0 |
| 20260506215509 | 8 | 6 | 4.8 | 17.7 | 0.00 | 0.00 | 0.00 | 39 | 1015.3 |
| 20260506215009 | 8 | 311 | 9.7 | 20.9 | 0.00 | 0.00 | 0.00 | 38 | 1015.4 |
| 20260506214527 | 8 | 16 | 11.3 | 22.5 | 0.00 | 0.00 | 0.00 | 38 | 1015.3 |
| 20260506214515 | 8 | 24 | 11.3 | 22.5 | 0.00 | 0.00 | 0.00 | 39 | 1015.2 |
| 20260506214004 | 8 | 309 | 11.3 | 22.5 | 0.00 | 0.00 | 0.00 | 37 | 1015.4 |
| 20260506213506 | 8 | 25 | 11.3 | 19.3 | 0.00 | 0.00 | 0.00 | 38 | 1015.4 |
| 20260506213015 | 9 | 307 | 11.3 | 19.3 | 0.00 | 0.00 | 0.00 | 38 | 1015.5 |
| 20260506213013 | 9 | 304 | 11.3 | 19.3 | 0.00 | 0.00 | 0.00 | 38 | 1015.4 |
| 20260506212503 | 8 | 257 | 6.4 | 20.9 | 0.00 | 0.00 | 0.00 | 38 | 1015.5 |
| 20260506212006 | 8 | 328 | 9.7 | 22.5 | 0.00 | 0.00 | 0.00 | 38 | 1015.6 |
| 20260506211517 | 8 | 315 | 11.3 | 22.5 | 0.00 | 0.00 | 0.00 | 40 | 1015.5 |
| 20260506211512 | 8 | 289 | 11.3 | 22.5 | 0.00 | 0.00 | 0.00 | 39 | 1015.7 |
| 20260506211004 | 9 | 314 | 8.0 | 19.3 | 0.00 | 0.00 | 0.00 | 38 | 1015.7 |
| 20260506210506 | 8 | 286 | 3.2 | 20.9 | 0.00 | 0.00 | 0.00 | 40 | 1015.8 |
| 20260506210017 | 8 | 307 | 14.5 | 20.9 | 0.00 | 0.00 | 0.00 | 39 | 1015.7 |
| 20260506205504 | 8 | 316 | 11.3 | 27.4 | 0.00 | 0.00 | 0.00 | 38 | 1015.8 |
| 20260506205007 | 8 | 297 | 12.9 | 27.4 | 0.00 | 0.00 | 0.00 | 38 | 1015.9 |
| 20260506204515 | 8 | 317 | 12.9 | 25.7 | 0.00 | 0.00 | 0.00 | 40 | 1015.9 |
| 20260506204512 | 8 | 8 | 12.9 | 25.7 | 0.00 | 0.00 | 0.00 | 39 | 1015.9 |
| 20260506204007 | 8 | 271 | 9.7 | 25.7 | 0.00 | 0.00 | 0.00 | 38 | 1015.9 |
| 20260506203507 | 8 | 294 | 4.8 | 22.5 | 0.00 | 0.00 | 0.00 | 38 | 1016.1 |
| 20260506203012 | 8 | 302 | 14.5 | 22.5 | 0.00 | 0.00 | 0.00 | 38 | 1016.2 |
| 20260506203007 | 8 | 304 | 12.9 | 22.5 | 0.00 | 0.00 | 0.00 | 38 | 1016.0 |
| 20260506202505 | 8 | 312 | 11.3 | 25.7 | 0.00 | 0.00 | 0.00 | 39 | 1016.2 |
| 20260506202006 | 9 | 296 | 11.3 | 25.7 | 0.00 | 0.00 | 0.00 | 39 | 1016.2 |
| 20260506201514 | 8 | 319 | 4.8 | 17.7 | 0.00 | 0.00 | 0.00 | 39 | 1016.2 |
| 20260506201509 | 8 | 282 | 4.8 | 17.7 | 0.00 | 0.00 | 0.00 | 40 | 1016.1 |
| 20260506201004 | 8 | 306 | 8.0 | 24.1 | 0.00 | 0.00 | 0.00 | 39 | 1016.2 |
| 20260506200506 | 8 | 283 | 8.0 | 24.1 | 0.00 | 0.00 | 0.00 | 39 | 1016.3 |
| 20260506200021 | 8 | 304 | 14.5 | 24.1 | 0.00 | 0.00 | 0.00 | 41 | 1016.3 |
| 20260506200005 | 8 | 291 | 14.5 | 24.1 | 0.00 | 0.00 | 0.00 | 41 | 1016.3 |
| 20260506195503 | 8 | 292 | 9.7 | 17.7 | 0.00 | 0.00 | 0.00 | 39 | 1016.3 |
| 20260506195006 | 8 | 279 | 3.2 | 22.5 | 0.00 | 0.00 | 0.00 | 41 | 1016.4 |
| 20260506194517 | 8 | 302 | 14.5 | 24.1 | 0.00 | 0.00 | 0.00 | 39 | 1016.5 |
| 20260506194502 | 8 | 302 | 12.9 | 22.5 | 0.00 | 0.00 | 0.00 | 40 | 1016.5 |
| 20260506194008 | 8 | 304 | 11.3 | 25.7 | 0.00 | 0.00 | 0.00 | 40 | 1016.4 |
| 20260506193506 | 8 | 330 | 16.1 | 25.7 | 0.00 | 0.00 | 0.00 | 38 | 1016.5 |
| 20260506193015 | 8 | 295 | 9.7 | 24.1 | 0.00 | 0.00 | 0.00 | 40 | 1016.5 |
| 20260506193001 | 8 | 295 | 8.0 | 17.7 | 0.00 | 0.00 | 0.00 | 41 | 1016.5 |
| 20260506192508 | 8 | 321 | 6.4 | 24.1 | 0.00 | 0.00 | 0.00 | 43 | 1016.5 |
| 20260506192006 | 8 | 319 | 12.9 | 25.7 | 0.00 | 0.00 | 0.00 | 40 | 1016.6 |
| 20260506191605 | 8 | 309 | 8.0 | 25.7 | 0.00 | 0.00 | 0.00 | 41 | 1016.7 |
| 20260506191519 | 7 | 266 | 9.7 | 25.7 | 0.00 | 0.00 | 0.00 | 42 | 1016.5 |
| 20260506191006 | 7 | 284 | 12.9 | 24.1 | 0.00 | 0.00 | 0.00 | 40 | 1016.6 |
| 20260506190507 | 7 | 295 | 9.7 | 22.5 | 0.00 | 0.00 | 0.00 | 40 | 1016.7 |
| 20260506190059 | 7 | 300 | 6.4 | 22.5 | 0.00 | 0.00 | 0.00 | 41 | 1016.9 |
| 20260506190014 | 7 | 276 | 11.3 | 22.5 | 0.00 | 0.00 | 0.00 | 40 | 1016.8 |
| 20260506185504 | 8 | 293 | 8.0 | 24.1 | 0.00 | 0.00 | 0.00 | 42 | 1016.8 |
| 20260506185007 | 7 | 283 | 14.5 | 24.1 | 0.00 | 0.00 | 0.00 | 40 | 1016.8 |
| 20260506184600 | 7 | 309 | 4.8 | 20.9 | 0.00 | 0.00 | 0.00 | 43 | 1016.9 |
| 20260506184515 | 7 | 316 | 4.8 | 20.9 | 0.00 | 0.00 | 0.00 | 42 | 1016.8 |
| 20260506184006 | 7 | 319 | 11.3 | 19.3 | 0.00 | 0.00 | 0.00 | 40 | 1016.9 |
| 20260506183507 | 7 | 242 | 6.4 | 14.5 | 0.00 | 0.00 | 0.00 | 42 | 1017.0 |
| 20260506183104 | 7 | 331 | 8.0 | 17.7 | 0.00 | 0.00 | 0.00 | 43 | 1017.1 |
| 20260506183015 | 7 | 330 | 8.0 | 20.9 | 0.00 | 0.00 | 0.00 | 43 | 1017.2 |
| 20260506182504 | 7 | 313 | 11.3 | 24.1 | 0.00 | 0.00 | 0.00 | 41 | 1017.3 |
| 20260506182009 | 7 | 274 | 14.5 | 24.1 | 0.00 | 0.00 | 0.00 | 41 | 1017.3 |
| 20260506181605 | 7 | 303 | 3.2 | 22.5 | 0.00 | 0.00 | 0.00 | 43 | 1017.3 |
| 20260506181518 | 7 | 313 | 3.2 | 22.5 | 0.00 | 0.00 | 0.00 | 45 | 1017.2 |
| 20260506181005 | 7 | 304 | 11.3 | 22.5 | 0.00 | 0.00 | 0.00 | 44 | 1017.3 |
| 20260506180504 | 7 | 324 | 9.7 | 27.4 | 0.00 | 0.00 | 0.00 | 44 | 1017.3 |
| 20260506180055 | 7 | 300 | 6.4 | 27.4 | 0.00 | 0.00 | 0.00 | 44 | 1017.5 |
| 20260506180017 | 7 | 302 | 8.0 | 27.4 | 0.00 | 0.00 | 0.00 | 43 | 1017.4 |
| 20260506175505 | 7 | 316 | 12.9 | 24.1 | 0.00 | 0.00 | 0.00 | 44 | 1017.5 |
| 20260506175006 | 7 | 307 | 6.4 | 22.5 | 0.00 | 0.00 | 0.00 | 44 | 1017.4 |
| 20260506174552 | 7 | 283 | 3.2 | 22.5 | 0.00 | 0.00 | 0.00 | 47 | 1017.6 |
| 20260506174516 | 7 | 274 | 4.8 | 22.5 | 0.00 | 0.00 | 0.00 | 46 | 1017.6 |
| 20260506174007 | 6 | 290 | 6.4 | 25.7 | 0.00 | 0.00 | 0.00 | 45 | 1017.7 |
| 20260506173507 | 6 | 286 | 9.7 | 25.7 | 0.00 | 0.00 | 0.00 | 44 | 1017.8 |
| 20260506173116 | 6 | 262 | 4.8 | 24.1 | 0.00 | 0.00 | 0.00 | 47 | 1017.9 |
| 20260506173017 | 6 | 332 | 8.0 | 24.1 | 0.00 | 0.00 | 0.00 | 46 | 1017.8 |
| 20260506172506 | 6 | 319 | 14.5 | 24.1 | 0.00 | 0.00 | 0.00 | 46 | 1017.8 |
| 20260506172008 | 6 | 298 | 8.0 | 17.7 | 0.00 | 0.00 | 0.00 | 46 | 1017.8 |
| 20260506171549 | 6 | 308 | 11.3 | 20.9 | 0.00 | 0.00 | 0.00 | 47 | 1018.0 |
| 20260506171518 | 6 | 319 | 9.7 | 20.9 | 0.00 | 0.00 | 0.00 | 46 | 1017.9 |
| 20260506171007 | 6 | 266 | 6.4 | 20.9 | 0.00 | 0.00 | 0.00 | 46 | 1017.9 |
| 20260506170509 | 6 | 316 | 9.7 | 24.1 | 0.00 | 0.00 | 0.00 | 46 | 1017.9 |
| 20260506170103 | 6 | 291 | 6.4 | 24.1 | 0.00 | 0.00 | 0.00 | 49 | 1018.1 |
| 20260506170018 | 5 | 304 | 8.0 | 24.1 | 0.00 | 0.00 | 0.00 | 47 | 1017.9 |
| 20260506165505 | 5 | 310 | 12.9 | 22.5 | 0.00 | 0.00 | 0.00 | 47 | 1018.0 |
| 20260506165008 | 5 | 299 | 14.5 | 25.7 | 0.00 | 0.00 | 0.00 | 46 | 1018.0 |
| 20260506164547 | 5 | 301 | 9.7 | 25.7 | 0.00 | 0.00 | 0.00 | 48 | 1018.2 |
| 20260506164518 | 5 | 326 | 11.3 | 25.7 | 0.00 | 0.00 | 0.00 | 47 | 1018.0 |
| 20260506164009 | 5 | 327 | 4.8 | 19.3 | 0.00 | 0.00 | 0.00 | 48 | 1018.0 |
| 20260506163510 | 5 | 4 | 9.7 | 19.3 | 0.00 | 0.00 | 0.00 | 44 | 1018.0 |
| 20260506163053 | 6 | 333 | 9.7 | 19.3 | 0.00 | 0.00 | 0.00 | 48 | 1018.3 |
| 20260506163031 | 6 | 314 | 9.7 | 19.3 | 0.00 | 0.00 | 0.00 | 47 | 1018.1 |
| 20260506162507 | 5 | 270 | 9.7 | 20.9 | 0.00 | 0.00 | 0.00 | 48 | 1018.1 |
| 20260506162008 | 5 | 298 | 11.3 | 20.9 | 0.00 | 0.00 | 0.00 | 44 | 1018.1 |
| 20260506161545 | 6 | 278 | 3.2 | 16.1 | 0.00 | 0.00 | 0.00 | 48 | 1018.3 |
| 20260506161520 | 5 | 249 | 4.8 | 20.9 | 0.00 | 0.00 | 0.00 | 49 | 1018.0 |
| 20260506161007 | 5 | 304 | 8.0 | 22.5 | 0.00 | 0.00 | 0.00 | 47 | 1018.1 |
| 20260506160506 | 5 | 296 | 12.9 | 22.5 | 0.00 | 0.00 | 0.00 | 46 | 1018.2 |
| 20260506160044 | 5 | 290 | 4.8 | 12.9 | 0.00 | 0.00 | 0.00 | 49 | 1018.4 |
| 20260506160022 | 5 | 266 | 6.4 | 12.9 | 0.00 | 0.00 | 0.00 | 48 | 1018.2 |
| 20260506155508 | 5 | 230 | 8.0 | 17.7 | 0.00 | 0.00 | 0.00 | 49 | 1018.2 |
| 20260506155008 | 5 | 290 | 6.4 | 20.9 | 0.00 | 0.00 | 0.00 | 48 | 1018.2 |
| 20260506154603 | 5 | 297 | 9.7 | 20.9 | 0.00 | 0.00 | 0.00 | 49 | 1018.3 |
| 20260506154530 | 5 | 306 | 11.3 | 20.9 | 0.00 | 0.00 | 0.00 | 49 | 1018.2 |
| 20260506154010 | 5 | 297 | 11.3 | 17.7 | 0.00 | 0.00 | 0.00 | 48 | 1018.2 |
| 20260506153510 | 5 | 333 | 4.8 | 17.7 | 0.00 | 0.00 | 0.00 | 48 | 1018.2 |
| 20260506153040 | 5 | 305 | 4.8 | 14.5 | 0.00 | 0.00 | 0.00 | 51 | 1018.4 |
| 20260506153018 | 5 | 302 | 6.4 | 16.1 | 0.00 | 0.00 | 0.00 | 50 | 1018.2 |
| 20260506152506 | 5 | 297 | 6.4 | 19.3 | 0.00 | 0.00 | 0.00 | 49 | 1018.2 |
| 20260506152009 | 5 | 314 | 11.3 | 19.3 | 0.00 | 0.00 | 0.00 | 48 | 1018.2 |
| 20260506151540 | 5 | 261 | 3.2 | 17.7 | 0.00 | 0.00 | 0.00 | 50 | 1018.4 |
| 20260506151523 | 5 | 290 | 4.8 | 17.7 | 0.00 | 0.00 | 0.00 | 48 | 1018.2 |
| 20260506151009 | 5 | 277 | 9.7 | 17.7 | 0.00 | 0.00 | 0.00 | 49 | 1018.2 |
| 20260506150509 | 5 | 319 | 1.6 | 12.9 | 0.00 | 0.00 | 0.00 | 51 | 1018.4 |
| 20260506150038 | 5 | 326 | 6.4 | 12.9 | 0.00 | 0.00 | 0.00 | 48 | 1018.5 |
| 20260506150022 | 5 | 316 | 8.0 | 12.9 | 0.00 | 0.00 | 0.00 | 49 | 1018.5 |
| 20260506145511 | 5 | 323 | 1.6 | 12.9 | 0.00 | 0.00 | 0.00 | 51 | 1018.6 |
| 20260506145009 | 5 | 329 | 4.8 | 12.9 | 0.00 | 0.00 | 0.00 | 51 | 1018.5 |
| 20260506144542 | 5 | 291 | 4.8 | 12.9 | 0.00 | 0.00 | 0.00 | 50 | 1018.5 |
| 20260506144520 | 5 | 291 | 6.4 | 12.9 | 0.00 | 0.00 | 0.00 | 49 | 1018.5 |
| 20260506144006 | 5 | 307 | 4.8 | 14.5 | 0.00 | 0.00 | 0.00 | 52 | 1018.6 |
| 20260506143509 | 4 | 297 | 8.0 | 14.5 | 0.00 | 0.00 | 0.00 | 47 | 1018.6 |
| 20260506143035 | 5 | 263 | 1.6 | 9.7 | 0.00 | 0.00 | 0.00 | 52 | 1018.6 |
| 20260506143021 | 5 | 273 | 1.6 | 9.7 | 0.00 | 0.00 | 0.00 | 52 | 1018.6 |
| 20260506142507 | 4 | 290 | 4.8 | 9.7 | 0.00 | 0.00 | 0.00 | 51 | 1018.6 |
| 20260506142009 | 4 | 253 | 3.2 | 9.7 | 0.00 | 0.00 | 0.00 | 52 | 1018.6 |
| 20260506141532 | 4 | 297 | 3.2 | 9.7 | 0.00 | 0.00 | 0.00 | 52 | 1018.7 |
| 20260506141520 | 4 | 314 | 4.8 | 9.7 | 0.00 | 0.00 | 0.00 | 52 | 1018.7 |
| 20260506141011 | 4 | 260 | 3.2 | 8.0 | 0.00 | 0.00 | 0.00 | 53 | 1018.7 |
| 20260506140511 | 3 | 267 | 1.6 | 8.0 | 0.00 | 0.00 | 0.00 | 55 | 1018.6 |
| 20260506140033 | 3 | 248 | 3.2 | 8.0 | 0.00 | 0.00 | 0.00 | 54 | 1018.7 |
| 20260506140025 | 3 | 240 | 3.2 | 8.0 | 0.00 | 0.00 | 0.00 | 53 | 1018.6 |
| 20260506135510 | 3 | 21 | 4.8 | 8.0 | 0.00 | 0.00 | 0.00 | 53 | 1018.6 |
| 20260506135009 | 3 | 325 | 3.2 | 9.7 | 0.00 | 0.00 | 0.00 | 54 | 1018.6 |
| 20260506134527 | 3 | 317 | 4.8 | 9.7 | 0.00 | 0.00 | 0.00 | 54 | 1018.7 |
| 20260506134522 | 3 | 314 | 6.4 | 9.7 | 0.00 | 0.00 | 0.00 | 54 | 1018.5 |
| 20260506134009 | 3 | 314 | 6.4 | 9.7 | 0.00 | 0.00 | 0.00 | 53 | 1018.6 |
| 20260506133506 | 3 | 294 | 4.8 | 9.7 | 0.00 | 0.00 | 0.00 | 53 | 1018.6 |
| 20260506133025 | 3 | 309 | 4.8 | 8.0 | 0.00 | 0.00 | 0.00 | 54 | 1018.6 |
| 20260506132510 | 3 | 278 | 1.6 | 8.0 | 0.00 | 0.00 | 0.00 | 56 | 1018.6 |
| 20260506132007 | 2 | 305 | 4.8 | 8.0 | 0.00 | 0.00 | 0.00 | 56 | 1018.5 |
| 20260506131521 | 2 | 314 | 3.2 | 8.0 | 0.00 | 0.00 | 0.00 | 58 | 1018.5 |
| 20260506131008 | 2 | 16 | 4.8 | 8.0 | 0.00 | 0.00 | 0.00 | 59 | 1018.4 |
| 20260506130508 | 2 | 313 | 4.8 | 8.0 | 0.00 | 0.00 | 0.00 | 61 | 1018.4 |
| 20260506130024 | 2 | 305 | 4.8 | 8.0 | 0.00 | 0.00 | 0.00 | 61 | 1018.4 |
| 20260506130017 | 2 | 308 | 3.2 | 8.0 | 0.00 | 0.00 | 0.00 | 61 | 1018.4 |
| 20260506125509 | 2 | 6 | 3.2 | 6.4 | 0.00 | 0.00 | 0.00 | 64 | 1018.3 |
| 20260506125010 | 2 | 310 | 3.2 | 6.4 | 0.00 | 0.00 | 0.00 | 65 | 1018.3 |
| 20260506124524 | 1 | 297 | 3.2 | 6.4 | 0.00 | 0.00 | 0.00 | 65 | 1018.3 |
| 20260506124514 | 1 | 319 | 3.2 | 6.4 | 0.00 | 0.00 | 0.00 | 66 | 1018.3 |
| 20260506124004 | 1 | 356 | 1.6 | 6.4 | 0.00 | 0.00 | 0.00 | 68 | 1018.3 |
| 20260506123504 | 1 | 328 | 1.6 | 3.2 | 0.00 | 0.00 | 0.00 | 68 | 1018.3 |
| 20260506123012 | 1 | 322 | 1.6 | 3.2 | 0.00 | 0.00 | 0.00 | 69 | 1018.2 |
| 20260506122505 | 1 | 345 | 0.0 | 1.6 | 0.00 | 0.00 | 0.00 | 70 | 1018.1 |
| 20260506122006 | 1 | 317 | 0.0 | 1.6 | 0.00 | 0.00 | 0.00 | 71 | 1018.0 |
| 20260506121514 | 1 | 317 | 0.0 | 0.0 | 0.00 | 0.00 | 0.00 | 72 | 1018.0 |
| 20260506121509 | 1 | 317 | 0.0 | 0.0 | 0.00 | 0.00 | 0.00 | 72 | 1018.1 |
| 20260506121007 | 0 | 317 | 0.0 | 1.6 | 0.00 | 0.00 | 0.00 | 72 | 1017.9 |
| 20260506120511 | 0 | 317 | 0.0 | 1.6 | 0.00 | 0.00 | 0.00 | 72 | 1017.9 |
| 20260506120008 | 0 | 322 | 0.0 | 1.6 | 0.00 | 0.00 | 0.00 | 73 | 1017.9 |
| 20260506120004 | 0 | 322 | 0.0 | 1.6 | 0.00 | 0.00 | 0.00 | 73 | 1017.8 |
| 20260506115504 | 0 | 326 | 1.6 | 3.2 | 0.00 | 0.00 | 0.00 | 73 | 1017.6 |
| 20260506115004 | 0 | 304 | 1.6 | 3.2 | 0.00 | 0.00 | 0.00 | 73 | 1017.5 |
| 20260506114507 | 0 | 317 | 1.6 | 3.2 | 0.00 | 0.00 | 0.00 | 74 | 1017.8 |